Weather History for Dover AFB, DE

Change the Weather History Date:

Thursday, October 18, 2012

  Actual Average Record
Temperature  
Mean Temperature 58 °F -  
Max Temperature 67 °F 66 °F 81 °F (1963)
Min Temperature 49 °F 47 °F 30 °F (1982)
Degree Days  
Heating Degree Days 7    
Growing Degree Days 8 (Base 50)    
Moisture  
Dew Point 55 °F    
Average Humidity 84    
Maximum Humidity 100    
Minimum Humidity 60    
Precipitation  
Precipitation 0.00 in - - ()
Sea Level Pressure  
Sea Level Pressure 29.93 in    
Wind  
Wind Speed 8 mph (SE)    
Max Wind Speed 20 mph    
Max Gust Speed 26 mph    
Visibility 10 miles    
Events      
Averages and records for this station are not official NWS values.
T = Trace of Precipitation, MM = Missing Value Source: NWS Daily Summary

Daily Weather History Graph

Daily Weather History Graph

Search for Another Location

Airport:

Trip Planner

Search our weather history database for the weather conditions in past years. The results will help you decide how hot, cold, wet, or windy it might be!

Date:

Astronomy

Oct. 18, 2012 Rise Set
Actual Time 7:15 AM EDT 6:18 PM EDT
Civil Twilight 6:47 AM EDT 6:45 PM EDT
Nautical Twilight 6:16 AM EDT 7:16 PM EDT
Astronomical Twilight 5:45 AM EDT 7:47 PM EDT
Moon 10:52 AM EDT (10/18) 8:51 PM EDT (10/18)
Length of Visible Light 11h 57m
Length of Day
11h 03m
Waxing Crescent, 14% of the Moon is Illuminated
Oct 18
Waxing Crescent
Oct 21
First Quarter
Oct 29
Full
Nov 6
Last Quarter
Nov 13
New

Hourly Weather History & Observations

Time (EDT) Temp. Dew Point Humidity Pressure Visibility Wind Dir Wind Speed Gust Speed Precip Events Conditions
12:55 AM 49.1 °F 46.2 °F 90% 29.98 in 10.0 mi South 5.8 mph - N/A   Clear
1:55 AM 49.5 °F 46.2 °F 89% 29.97 in 10.0 mi South 4.6 mph - N/A   Clear
2:55 AM 49.1 °F 46.6 °F 91% 29.96 in 10.0 mi SSE 8.1 mph - N/A   Clear
3:55 AM 50.0 °F 47.5 °F 91% 29.97 in 10.0 mi SSE 4.6 mph - N/A   Clear
4:55 AM 49.5 °F 46.6 °F 90% 29.97 in 10.0 mi SSE 5.8 mph - N/A   Clear
5:55 AM 50.0 °F 47.5 °F 91% 29.99 in 10.0 mi SE 4.6 mph - N/A   Clear
6:55 AM 50.2 °F 48.0 °F 92% 30.00 in 10.0 mi SE 3.5 mph - N/A   Clear
7:55 AM 49.8 °F 48.6 °F 95% 29.99 in 10.0 mi SE 5.8 mph - N/A   Clear
8:55 AM 57.0 °F 53.1 °F 87% 29.99 in 10.0 mi SE 6.9 mph - N/A   Clear
9:55 AM 63.1 °F 54.3 °F 73% 30.00 in 10.0 mi SSE 9.2 mph - N/A   Clear
10:55 AM 66.2 °F 52.7 °F 62% 29.99 in 10.0 mi SE 8.1 mph - N/A   Clear
11:55 AM 66.9 °F 52.7 °F 60% 29.99 in 10.0 mi East 11.5 mph 18.4 mph N/A   Clear
12:55 PM 66.6 °F 55.0 °F 66% 29.97 in 10.0 mi ESE 11.5 mph 23.0 mph N/A   Partly Cloudy
1:55 PM 67.3 °F 56.8 °F 69% 29.94 in 10.0 mi East 18.4 mph - N/A   Clear
2:55 PM 67.5 °F 56.8 °F 69% 29.92 in 10.0 mi East 19.6 mph 26.5 mph N/A   Clear
3:55 PM 66.7 °F 58.1 °F 74% 29.92 in 10.0 mi ESE 13.8 mph 24.2 mph N/A   Partly Cloudy
4:55 PM 64.9 °F 58.5 °F 79% 29.91 in 10.0 mi ESE 8.1 mph - N/A   Mostly Cloudy
5:55 PM 63.9 °F 58.6 °F 83% 29.91 in 10.0 mi East 8.1 mph - N/A   Overcast
6:55 PM 63.3 °F 57.2 °F 80% 29.92 in 10.0 mi ESE 9.2 mph 18.4 mph N/A   Overcast
7:55 PM 63.1 °F 55.6 °F 76% 29.91 in 10.0 mi East 6.9 mph - N/A   Overcast
8:21 PM 62.6 °F 57.2 °F 82% 29.91 in 10.0 mi East 6.9 mph - N/A   Overcast
8:55 PM 63.5 °F 56.7 °F 78% 29.89 in 10.0 mi East 4.6 mph - N/A   Overcast
9:44 PM 64.4 °F 60.8 °F 88% 29.87 in 10.0 mi ESE 11.5 mph - N/A   Overcast
9:54 PM 64.4 °F 60.8 °F 88% 29.87 in 10.0 mi ESE 10.4 mph - N/A   Overcast
9:55 PM 64.4 °F 61.2 °F 89% 29.87 in 10.0 mi ESE 12.7 mph 18.4 mph N/A   Overcast
10:37 PM 64.4 °F 62.6 °F 94% 29.85 in 10.0 mi ESE 12.7 mph - N/A   Overcast
10:55 PM 64.6 °F 63.5 °F 96% 29.85 in 10.0 mi ESE 11.5 mph - N/A   Overcast
10:59 PM 64.4 °F 64.4 °F 100% 29.85 in 10.0 mi SE 12.7 mph - N/A   Overcast
11:01 PM 64.4 °F 64.4 °F 100% 29.85 in 10.0 mi SE 10.4 mph 18.4 mph N/A   Overcast
11:55 PM 65.8 °F 64.9 °F 97% 29.83 in 10.0 mi SE 6.9 mph - N/A   Overcast